• In Deutschland
  • Länderverzeichnis
  • Für 7 Tage
  • Wassertemperatur
  • Satellitenkarten
  • Wetterkarte
  • Widgets
  • user-avatar
    Anmelden

    Stündliche Wetter Gjirokaster

    Heute, 18 August, Freitag

    Zeit Temperatur Niederschläge Wind Luftdruck Luftfeuchtigkeit
    00:00 +17°C° 0 mm 2 m/S 653 mmHg 46%
    01:00 +17°C° 0 mm 2 m/S 653 mmHg 46%
    02:00 +16°C° 0 mm 2 m/S 653 mmHg 47%
    03:00 +16°C° 0 mm 2 m/S 653 mmHg 47%
    04:00 +16°C° 0 mm 2 m/S 653 mmHg 48%
    05:00 +17°C° 0 mm 2 m/S 654 mmHg 45%
    06:00 +18°C° 0 mm 2 m/S 654 mmHg 43%
    07:00 +20°C° 0 mm 2 m/S 655 mmHg 41%
    08:00 +23°C° 0 mm 2 m/S 655 mmHg 36%
    09:00 +25°C° 0 mm 1 m/S 656 mmHg 32%
    10:00 +27°C° 0 mm 1 m/S 656 mmHg 27%
    11:00 +28°C° 0 mm 2 m/S 656 mmHg 26%
    12:00 +28°C° 0 mm 2 m/S 656 mmHg 25%
    13:00 +29°C° 0 mm 3 m/S 656 mmHg 24%
    14:00 +28°C° 0 mm 3 m/S 656 mmHg 26%
    15:00 +28°C° 0 mm 3 m/S 656 mmHg 27%
    16:00 +27°C° 0 mm 4 m/S 655 mmHg 29%
    17:00 +25°C° 0 mm 3 m/S 655 mmHg 34%
    18:00 +23°C° 0 mm 2 m/S 654 mmHg 39%
    19:00 +20°C° 0 mm 2 m/S 654 mmHg 44%
    20:00 +19°C° 0 mm 2 m/S 654 mmHg 46%
    21:00 +18°C° 0 mm 2 m/S 654 mmHg 47%
    22:00 +19°C° 0 mm 1 m/S 654 mmHg 49%
    23:00 +18°C° 0 mm 1 m/S 654 mmHg 49%

    Morgen, 19 August, Samstag

    Zeit Temperatur Niederschläge Wind Luftdruck Luftfeuchtigkeit
    00:00 +18°C° 0 mm 1 m/S 654 mmHg 49%
    01:00 +18°C° 0 mm 1 m/S 654 mmHg 49%
    02:00 +18°C° 0 mm 1 m/S 654 mmHg 49%
    03:00 +16°C° 0 mm 1 m/S 653 mmHg 50%
    04:00 +16°C° 0 mm 1 m/S 653 mmHg 50%
    05:00 +19°C° 0 mm 1 m/S 654 mmHg 47%
    06:00 +20°C° 0 mm 1 m/S 654 mmHg 44%
    07:00 +22°C° 0 mm 1 m/S 655 mmHg 41%
    08:00 +24°C° 0 mm 1 m/S 655 mmHg 37%
    09:00 +26°C° 0 mm 1 m/S 656 mmHg 33%
    10:00 +28°C° 0 mm 1 m/S 656 mmHg 28%
    11:00 +28°C° 0 mm 2 m/S 656 mmHg 27%
    12:00 +29°C° 0 mm 3 m/S 656 mmHg 26%
    13:00 +29°C° 0 mm 3 m/S 655 mmHg 25%
    14:00 +28°C° 0 mm 3 m/S 655 mmHg 27%
    15:00 +27°C° 0 mm 3 m/S 655 mmHg 29%
    16:00 +27°C° 0 mm 3 m/S 654 mmHg 32%
    17:00 +25°C° 0 mm 2 m/S 654 mmHg 36%
    18:00 +23°C° 0 mm 2 m/S 654 mmHg 40%
    19:00 +21°C° 0 mm 1 m/S 654 mmHg 45%
    20:00 +20°C° 0 mm 1 m/S 654 mmHg 46%
    21:00 +19°C° 0 mm 1 m/S 654 mmHg 48%
    22:00 +18°C° 0 mm 1 m/S 654 mmHg 49%
    23:00 +18°C° 0 mm 1 m/S 653 mmHg 49%

    übermorgen, 20 August, Sonntag

    Zeit Temperatur Niederschläge Wind Luftdruck Luftfeuchtigkeit
    00:00 +18°C° 0 mm 1 m/S 653 mmHg 50%
    01:00 +16°C° 0 mm 1 m/S 653 mmHg 50%
    02:00 +16°C° 0 mm 1 m/S 653 mmHg 50%
    03:00 +16°C° 0 mm 1 m/S 652 mmHg 49%
    04:00 +16°C° 0 mm 1 m/S 652 mmHg 49%
    05:00 +18°C° 0 mm 1 m/S 653 mmHg 45%
    06:00 +20°C° 0 mm 1 m/S 653 mmHg 41%
    07:00 +22°C° 0 mm 1 m/S 653 mmHg 38%
    08:00 +24°C° 0 mm 1 m/S 654 mmHg 34%
    09:00 +26°C° 0 mm 2 m/S 654 mmHg 30%
    10:00 +28°C° 0 mm 2 m/S 655 mmHg 27%
    11:00 +28°C° 0 mm 2 m/S 655 mmHg 27%
    12:00 +28°C° 0 mm 3 m/S 654 mmHg 27%
    13:00 +28°C° 0 mm 3 m/S 654 mmHg 27%
    14:00 +28°C° 0 mm 3 m/S 654 mmHg 30%
    15:00 +27°C° 0 mm 3 m/S 653 mmHg 33%
    16:00 +26°C° 0 mm 2 m/S 653 mmHg 36%
    17:00 +24°C° 0 mm 2 m/S 653 mmHg 42%
    18:00 +22°C° 0 mm 1 m/S 652 mmHg 48%
    19:00 +20°C° 0 mm 1 m/S 652 mmHg 54%
    20:00 +20°C° 0 mm 1 m/S 652 mmHg 56%
    21:00 +19°C° 0 mm 1 m/S 652 mmHg 59%
    22:00 +18°C° 0 mm 1 m/S 652 mmHg 62%
    23:00 +18°C° 0 mm 1 m/S 652 mmHg 63%

    21 August, Montag

    Zeit Temperatur Niederschläge Wind Luftdruck Luftfeuchtigkeit
    00:00 +16°C° 0 mm 1 m/S 652 mmHg 64%
    01:00 +16°C° 0 mm 1 m/S 651 mmHg 65%
    02:00 +16°C° 0,1 mm 2 m/S 651 mmHg 66%
    03:00 +16°C° 0,1 mm 2 m/S 651 mmHg 67%
    04:00 +15°C° 0,1 mm 2 m/S 651 mmHg 68%
    05:00 +16°C° 0,1 mm 2 m/S 652 mmHg 64%
    06:00 +18°C° 0,1 mm 2 m/S 652 mmHg 60%
    07:00 +19°C° 0,1 mm 2 m/S 652 mmHg 56%
    08:00 +20°C° 0,1 mm 2 m/S 653 mmHg 51%
    09:00 +23°C° 0,1 mm 2 m/S 653 mmHg 46%
    10:00 +25°C° 0,1 mm 3 m/S 654 mmHg 41%
    11:00 +25°C° 0,2 mm 3 m/S 653 mmHg 41%
    12:00 +25°C° 0,2 mm 4 m/S 653 mmHg 40%
    13:00 +26°C° 0,2 mm 4 m/S 653 mmHg 39%
    14:00 +25°C° 0,2 mm 4 m/S 653 mmHg 42%
    15:00 +25°C° 0,2 mm 4 m/S 653 mmHg 44%
    16:00 +23°C° 0,2 mm 4 m/S 652 mmHg 46%
    17:00 +22°C° 0 mm 4 m/S 652 mmHg 50%
    18:00 +20°C° 0 mm 4 m/S 652 mmHg 55%
    19:00 +19°C° 0 mm 4 m/S 652 mmHg 59%
    20:00 +18°C° 0 mm 4 m/S 652 mmHg 62%
    21:00 +17°C° 0 mm 4 m/S 652 mmHg 66%
    22:00 +16°C° 0 mm 3 m/S 652 mmHg 69%
    23:00 +14°C° 0 mm 3 m/S 652 mmHg 68%

    22 August, Dienstag

    Zeit Temperatur Niederschläge Wind Luftdruck Luftfeuchtigkeit
    00:00 +14°C° 0 mm 3 m/S 652 mmHg 67%
    01:00 +14°C° 0 mm 3 m/S 652 mmHg 65%
    02:00 +13°C° 0 mm 3 m/S 652 mmHg 63%
    03:00 +14°C° 0 mm 2 m/S 652 mmHg 62%
    04:00 +14°C° 0 mm 2 m/S 652 mmHg 60%
    05:00 +15°C° 0 mm 2 m/S 652 mmHg 55%
    06:00 +16°C° 0 mm 2 m/S 653 mmHg 51%
    07:00 +17°C° 0 mm 2 m/S 653 mmHg 47%
    08:00 +19°C° 0 mm 2 m/S 654 mmHg 43%
    09:00 +21°C° 0 mm 2 m/S 654 mmHg 39%
    10:00 +24°C° 0 mm 2 m/S 655 mmHg 34%
    11:00 +24°C° 0 mm 2 m/S 655 mmHg 33%
    12:00 +25°C° 0 mm 3 m/S 655 mmHg 31%
    13:00 +26°C° 0 mm 4 m/S 655 mmHg 29%
    14:00 +26°C° 0 mm 4 m/S 655 mmHg 29%
    15:00 +26°C° 0 mm 4 m/S 654 mmHg 29%
    16:00 +25°C° 0 mm 5 m/S 654 mmHg 29%
    17:00 +22°C° 0 mm 4 m/S 654 mmHg 34%
    18:00 +20°C° 0 mm 4 m/S 654 mmHg 38%
    19:00 +17°C° 0 mm 3 m/S 653 mmHg 43%
    20:00 +17°C° 0 mm 3 m/S 653 mmHg 43%
    21:00 +16°C° 0 mm 3 m/S 654 mmHg 44%
    22:00 +15°C° 0 mm 2 m/S 654 mmHg 44%
    23:00 +15°C° 0 mm 2 m/S 654 mmHg 43%

    23 August, Mittwoch

    Zeit Temperatur Niederschläge Wind Luftdruck Luftfeuchtigkeit
    00:00 +15°C° 0 mm 2 m/S 654 mmHg 42%
    01:00 +15°C° 0 mm 2 m/S 654 mmHg 41%
    02:00 +14°C° 0 mm 2 m/S 654 mmHg 41%
    03:00 +14°C° 0 mm 2 m/S 654 mmHg 42%
    04:00 +14°C° 0 mm 2 m/S 654 mmHg 42%
    05:00 +15°C° 0 mm 2 m/S 654 mmHg 41%
    06:00 +17°C° 0 mm 2 m/S 655 mmHg 39%
    07:00 +18°C° 0 mm 2 m/S 655 mmHg 38%
    08:00 +20°C° 0 mm 2 m/S 656 mmHg 37%
    09:00 +23°C° 0 mm 2 m/S 656 mmHg 35%
    10:00 +25°C° 0 mm 2 m/S 657 mmHg 34%
    11:00 +26°C° 0 mm 2 m/S 657 mmHg 33%
    12:00 +26°C° 0 mm 3 m/S 657 mmHg 33%
    13:00 +27°C° 0 mm 3 m/S 656 mmHg 32%
    14:00 +26°C° 0 mm 3 m/S 656 mmHg 35%
    15:00 +26°C° 0 mm 3 m/S 656 mmHg 37%
    16:00 +25°C° 0 mm 3 m/S 656 mmHg 40%
    17:00 +23°C° 0 mm 2 m/S 655 mmHg 47%
    18:00 +20°C° 0 mm 2 m/S 655 mmHg 55%
    19:00 +19°C° 0 mm 1 m/S 655 mmHg 62%
    20:00 +18°C° 0 mm 1 m/S 655 mmHg 64%
    21:00 +18°C° 0 mm 1 m/S 655 mmHg 65%
    22:00 +16°C° 0 mm 1 m/S 655 mmHg 67%
    23:00 +16°C° 0 mm 1 m/S 655 mmHg 65%
    Mehr zeigen